View from above orbital plane
|
View from above satellite
|
Ground track
|
The orbit data is extracted from the following two-line orbital elements,
1 39770U 14029E 21017.20294287 .00000689 00000-0 80885-4 0 9993
2 39770 97.9062 128.7675 0008810 352.9537 7.1578 14.88127691360844
Epoch (UTC): | 17 January 2021 04:52:14 |
Eccentricity: | 0.0008810 |
inclination: | 97.9062° |
perigee height: | 597 km |
apogee height: | 610 km |
right ascension of ascending node: | 128.7675° |
argument of perigee: | 352.9537° |
revolutions per day: | 14.88127691 |
mean anomaly at epoch: | 7.1578° |
orbit number at epoch: | 36084 |
The dashed part of the orbit path shows where the satellite is in the earth's shadow,
|
|